Tracking 20241 objects as of 26-Jan-2020
HD Live streaming from Space Station
objects crossing your sky now

FENGYUN 1C DEB

Track FENGYUN 1C DEB now!
10-day predictions


NORAD ID: 37926
Int'l Code: 1999-025EPB
Perigee: 814.3 km
Apogee: 906.6 km
Inclination: 98.9 °
Period: 102.0 minutes
Semi major axis: 7231 km
RCS: 0.02 m2 (small)
Launch date: May 10, 1999
Source: People's Republic of China (PRC)
Launch site: Taiyaun Space Center, China (TSC)

Note: This is SATELLITE DEBRIS
aabbcc
Your satellite tracking list
Your tracking list is empty




NASA's NSSDC Master Catalog

Two Line Element Set (TLE):
1 37926U 99025EPB 20025.41145413 +.00000391 +00000-0 +23436-3 0  9998
2 37926 098.8885 087.3645 0063794 228.9644 143.1051 14.11774016438745
Source of the keplerian elements: AFSPC